Content
SEND FEEDBACK

Daily
Averages
Monthly
Summary
United States of America

FARGO, NORTH DAKOTA


Home > North America > United States > North Dakota
Elevation: 900 feet     Latitude: 46 54N     Longitude: 096 48W

WEATHER
 
SELECT A DAY
Number of Records: 211,089;   Date Range: 1/1/95 - 12/19/14
 
SHARE

PRINT THIS DATA

[ ← Previous Day ]
WEATHER ALMANAC - FEBRUARY 13, 2013
[ Next Day → ]
[ °C ]   °F
Weather ElementAverageHighLow
Temperature26.1 °F30.9 °F (1:53 pm)15.8 °F (5:53 am)
Dewpoint21.9 °F27 °F (1:53 pm)12 °F (11:53 pm)
Humidity84.3 %93 % (1:00 pm)75 % (2:53 am)
Barometer29.67 in29.81 in (11:53 pm)29.58 in (2:24 pm)
Wind Speed5.9 mph13.8 mph (8:53 pm)
Weather ElementAverage
Visibility3.8 mi
Wind DirectionSSE (164.6 °)

Weather ElementTotal
Precipitation0.28 in
Heating Degree Days41.7 (Base 65)
Averaged from 39 records on February 13, 2013
WEATHER CONDITIONS BREAKOUT
WIND DIRECTION BREAKOUT
WEATHER BY HOUR - FEBRUARY 13, 2013
[ °C ]   °F
Local TimeTemperatureDewpointHumidityBarometerVisibilityWind DirectionWind SpeedGust SpeedPrecipitationEventsConditions
1:53 AM25.0 °F19.9 °F81 %29.76 in10.0 miSSW (210°)6.9 mphOvercast
2:53 AM30.0 °F23.0 °F75 %29.76 in10.0 miCalmOvercast
3:53 AM25.0 °F19.9 °F81 %29.74 in10.0 miSouth (190°)6.9 mphClear
4:53 AM21.0 °F17.1 °F85 %29.73 in6.0 miSSE (160°)3.5 mphClear
5:53 AM15.8 °F12.2 °F86 %29.67 in5.0 miSouth (190°)6.9 mphClear
6:53 AM17.1 °F12.9 °F84 %29.71 in6.0 miSSW (200°)6.9 mphClear
7:53 AM18.0 °F15.1 °F88 %29.70 in5.0 miSouth (180°)4.6 mphClear
8:53 AM21.0 °F18.0 °F88 %29.69 in8.0 miSouth (190°)4.6 mphMostly Cloudy
9:53 AM24.1 °F21.0 °F88 %29.69 in9.0 miSW (220°)3.5 mphOvercast
10:53 AM27.0 °F21.9 °F81 %29.68 in9.0 miSSW (200°)4.6 mphOvercast
11:53 AM28.9 °F23.0 °F78 %29.66 in10.0 miSouth (190°)4.6 mphOvercast
12:17 PM28.4 °F24.8 °F86 %29.62 in1.8 miSW (220°)4.6 mph0.00 inSnowLight Snow
12:28 PM28.4 °F24.8 °F86 %29.61 in1.0 miSW (230°)3.5 mph0.01 inSnowLight Snow
12:53 PM28.9 °F26.1 °F89 %29.64 in0.8 miCalm0.01 inSnowLight Snow
1:00 PM28.4 °F26.6 °F93 %29.59 in0.8 miCalm0.01 inSnowLight Snow
1:15 PM28.4 °F26.6 °F93 %29.59 in1.0 miCalm0.01 inSnowLight Snow
1:53 PM30.9 °F27.0 °F85 %29.62 in1.2 miCalm0.02 inSnowLight Snow
2:24 PM30.2 °F26.6 °F86 %29.58 in0.8 miCalm0.00 inSnowLight Snow
2:50 PM30.2 °F26.6 °F86 %29.58 in1.2 miNNW (340°)3.5 mph0.01 inSnowLight Snow
2:53 PM30.0 °F26.1 °F85 %29.62 in1.2 miNorth (350°)4.6 mph0.01 inSnowLight Snow
3:13 PM30.2 °F26.6 °F86 %29.58 in0.8 miNorth (350°)4.6 mph0.01 inSnowLight Snow
3:25 PM30.2 °F24.8 °F80 %29.59 in0.5 miNE (40°)5.8 mph0.02 inSnowSnow
3:37 PM30.2 °F24.8 °F80 %29.59 in0.5 miNNE (20°)4.6 mph0.02 inSnowSnow
3:53 PM30.0 °F25.0 °F82 %29.63 in0.5 miNE (40°)4.6 mph0.03 inSnowSnow
4:17 PM28.4 °F24.8 °F86 %29.60 in0.5 miNNE (30°)6.9 mph0.01 inFog-SnowSnow
4:31 PM28.4 °F24.8 °F86 %29.60 in0.8 miNNE (20°)6.9 mph0.01 inSnowLight Snow
4:41 PM28.4 °F24.8 °F86 %29.61 in1.0 miNNE (20°)5.8 mph0.02 inSnowLight Snow
4:50 PM28.4 °F24.8 °F86 %29.61 in1.0 miNorth (10°)8.1 mph0.02 inSnowLight Snow
4:53 PM28.0 °F23.0 °F81 %29.65 in1.0 miNorth (10°)9.2 mph0.02 inSnowLight Snow
5:53 PM27.0 °F23.0 °F85 %29.68 in1.0 miNorth (10°)9.2 mph0.01 inSnowLight Snow
6:34 PM26.6 °F23.0 °F86 %29.65 in1.5 miNorth (360°)9.2 mph0.01 inSnowLight Snow
6:53 PM26.1 °F21.9 °F84 %29.70 in1.5 miNorth (360°)9.2 mph0.02 inSnowLight Snow
7:26 PM26.6 °F21.2 °F80 %29.67 in2.5 miNorth (10°)11.5 mph0.00 inSnowLight Snow
7:43 PM26.6 °F21.2 °F80 %29.68 in2.5 miNorth (360°)10.4 mph0.00 inSnowLight Snow
7:53 PM26.1 °F21.0 °F81 %29.73 in4.0 miNorth (360°)10.4 mph0.00 inSnowLight Snow
8:53 PM25.0 °F19.9 °F81 %29.76 in9.0 miNNW (340°)13.8 mph0.00 inOvercast
9:53 PM19.0 °F15.1 °F85 %29.77 in8.0 miNNW (340°)10.4 mphPartly Cloudy
10:53 PM19.0 °F15.1 °F85 %29.79 in7.0 miNNW (330°)11.5 mphClear
11:53 PM16.0 °F12.0 °F84 %29.81 in7.0 miNNW (340°)9.2 mphPartly Cloudy
Hourly data recorded from KFAR, located miles away from Fargo, North Dakota







STORIES FROM OUR PARTNERS